Kosmos-1390

operational
NORAD ID: 13377 Int'l Des: 1982-073 Owner: GUKOS Country: SU
LEOCIRCULAR

Über Kosmos-1390

Beschreibung wird geladen...

Live-Position

3D-Globus wird geladen...

Nächste Überflüge

Höhenverlauf

Altitude vs Time

uPlot chart will show altitude changes over time

Zweizeiliger Elementsatz

1 13377U 82073C 26072.59637327 -.00000004 00000-0 77070-4 0 9990
2 13377 74.0162 312.3004 0030507 141.5543 229.1766 12.53376803996942
Epoch: 13. März 2026 • Age: 36 hours

Aktueller Status

Höhe 1452.0 km
Geschwindigkeit 7.15 km/s
Subsatellitenpunkt 67.83°N, 7.55°E
Startdatum 21. Juli 1982
Alter 43.6 years
Typ other

Technische Details

Klassifizierung Payload
Masse 60.00 kg
Trockenmasse 60.00 kg
Gesamtmasse 60.00 kg
Länge 0.80 m
Durchmesser 0.80 m
Spannweite 0.80 m
Form Poly
Hersteller NPOPM
Bus-Typ Strela-1 11F625
Phasenstatus In Orbit
Besitzer/Staat GUKOS/SU

Große Konstellationen

Loading constellations...